russianplanes.net alexa rank chart, russianplanes.net alexa rank daily changes

russianplanes.net alexa rank chart, russianplanes.net alexa rank daily changes

russianplanes.net
Actual rank:
93 603

RANK HISTORY

Date Rank Diff
2018/02/19 93 603 +51 067
2018/02/18 42 536 -60 596
2018/02/17 103 132 +16 832
2018/02/16 86 300 +19 613
2018/02/15 66 687 +30 010
2018/02/14 36 677 +5 832
2018/02/13 30 845 -53 036
2018/02/12 83 881 +13 243
2018/02/11 70 638 -20 851
2018/02/10 91 489 +13 648
2018/02/09 77 841 -10 720
2018/02/08 88 561 +45 372
2018/02/07 43 189 -42 855
2018/02/06 86 044 +21 033
2018/02/05 65 011 -10 417
2018/02/04 75 428 -410
2018/02/03 75 838 -32 674
2018/02/02 108 512 +58 294
2018/02/01 50 218 -1 359
2018/01/31 51 577 -15 811
2018/01/30 67 388 +481
2018/01/29 66 907 +657
2018/01/28 66 250 +503
2018/01/27 65 747 +1 438
2018/01/26 64 309 +848
2018/01/25 63 461 +68
2018/01/24 63 393 -35
2018/01/23 63 428 -93
2018/01/22 63 521 +472
2018/01/21 63 049 +355
2018/01/20 62 694 +171
2018/01/19 62 523 -298
2018/01/18 62 821 +970
2018/01/17 61 851 +647
2018/01/16 61 204 -277
2018/01/15 61 481 +517
2018/01/14 60 964 -214
2018/01/13 61 178 -2 107
2018/01/12 63 285 +553
2018/01/11 62 732 +51
2018/01/10 62 681 +1 652
2018/01/09 61 029 -361
2018/01/08 61 390 -454
2018/01/07 61 844 -1 781
2018/01/06 63 625 -548
2018/01/05 64 173 -612
2018/01/04 64 785 -833
2018/01/03 65 618 -2 164
2018/01/02 67 782 -568
2018/01/01 68 350 +468
2017/12/31 67 882 -420
2017/12/30 68 302 -1 348
2017/12/29 69 650 -1 744
2017/12/28 71 394 -804
2017/12/27 72 198 -2 162
2017/12/26 74 360 -1 121
2017/12/25 75 481 +1 737
2017/12/24 73 744 +120
2017/12/23 73 624 +634
2017/12/22 72 990 -2 508
2017/12/21 75 498

WIDGET FOR YOUR SITE

DOMAINS WITH THE NEAREST RANK

Domain Rank
kozan.gr 93 598
racing-games.com 93 599
bioskop.vip 93 600
kitchenstuffplus.com 93 601
tipshow.net 93 602
russianplanes.net 93 603
unimed.ac.id 93 604
technip.com 93 605
akilliogretim.com 93 606
anchiktigra.livejournal.com 93 607
val-racing.ru 93 608

DOMAINS WITH THE NEAREST RANK BY TLD .net

Domain Rank
gartenjournal.net 93 554
sonokinetic.net 93 558
leaguespy.net 93 567
applyists.net 93 592
tipshow.net 93 602
russianplanes.net 93 603
iptvembed.net 93 622
radiomontecarlo.net 93 627
vilingstore.net 93 641
codenull.net 93 663
masswap.net 93 688